Location: ?????
(55.8833°N, 37.6500°E)
Time: 19:39:16
(UTC+00:00)

CZ-4C R/B - Pass Details

Date: 27 February 2020
Orbit: 641 x 1361 km, 63.4° (Epoch: 05 April)

Event Time Altitude Azimuth Distance (km) Brightness Sun altitude
Exits shadow 22:54:47 25° 58° (ENE) 1,820 4.2 -40.3°
Drops below altitude 10° 22:57:22 10° 53° (NE) 2,762 5.4 -40.1°
Sets 23:00:14 0° 51° (NE) 3,835 6.3 -39.9°
